User: anonymous   Login
Location: Churchill
(58.7670°N, 94.1670°W)
Time: 02:29:26
(UTC-05:00)
Language:

Cosmos 2142 Rocket - Orbit

View from above orbital plane
View from above orbital plane
View from above satellite
View from above satellite

Ground track
Ground track

The orbit data is extracted from the following two-line orbital elements,

1 21231U 91029B   17262.88824811  .00000012  00000-0 -30567-5 0  9998
2 21231  82.9532  38.5161 0034361 327.0544 142.7429 13.75749363326802
Epoch (UTC): 19 September 2017 21:19:04
Eccentricity: 0.0034361
inclination: 82.9532°
perigee height: 954 km
apogee height: 1004 km
right ascension of ascending node: 38.5161°
argument of perigee: 327.0544°
revolutions per day: 13.75749363
mean anomaly at epoch: 142.7429°
orbit number at epoch: 32680

The dashed part of the orbit path shows where the satellite is in the earth's shadow,  

DLR